This demonstration page uses our WeatherBlox Daily Observations layout. Learn more.

Left ArrowRight Arrow

Hourly Observations for December 13, 2021

Temp ( °F °C ) Dew Point ( °F °C ) Humidity (%) Winds ( mph kmh ) Pressure ( in mb ) Visibility ( mi km ) Precip ( " mm )
12:56 am 00:56 Clear 34 1.3 20 -6.5 56 56 SE 3 6 30.02 1017 10 16 0.00 0.00
1:56 am 01:56 Clear 34 1.1 20 -6.7 56 56 Calm 30.04 1017 10 16 0.00 0.00
2:56 am 02:56 Clear 33 0.4 20 -6.7 59 59 Calm 30.05 1018 10 16 0.00 0.00
3:56 am 03:56 Clear 32 0 21 -6.2 63 63 Calm 30.06 1018 10 16 0.00 0.00
4:56 am 04:56 Clear 31 -0.3 20 -6.7 62 62 Calm 30.08 1019 10 16 0.00 0.00
5:56 am 05:56 Clear 30 -1.2 20 -6.7 67 67 Calm 30.09 1019 10 16 0.00 0.00
6:56 am 06:56 Clear 29 -1.9 20 -6.7 70 70 Calm 30.11 1020 10 16 0.00 0.00
7:56 am 07:56 Mostly Sunny 29 -1.6 20 -6.5 70 70 Calm 30.13 1020 10 16 0.00 0.00
8:56 am 08:56 Sunny 31 -0.8 22 -5.8 69 69 Calm 30.16 1021 10 16 0.00 0.00
9:56 am 09:56 Sunny 35 1.5 23 -5 62 62 Calm 30.16 1022 10 16 0.00 0.00
10:56 am 10:56 Sunny 39 3.8 24 -4.7 54 54 SE 5 7 30.18 1022 10 16 0.00 0.00
11:56 am 11:56 Mostly Sunny 43 6.2 23 -4.9 45 45 Calm 30.15 1021 10 16 0.00 0.00
12:56 pm 12:56 Sunny 48 9.1 23 -4.8 37 37 SE 3 6 30.13 1020 10 16 0.00 0.00
1:56 pm 13:56 Sunny 51 10.4 24 -4.4 35 35 SSE 3 6 30.12 1020 10 16 0.00 0.00
2:56 pm 14:56 Sunny 55 12.7 25 -4 31 31 ENE 3 6 30.11 1020 10 16 0.00 0.00
3:56 pm 15:56 Sunny 54 12.2 24 -4.4 31 31 E 6 9 30.11 1020 10 16 0.00 0.00
4:56 pm 16:56 Clear 49 9.7 24 -4.3 37 37 E 6 9 30.12 1020 10 16 0.00 0.00
5:56 pm 17:56 undefined 46 7.6 24 -4.5 42 42 E 5 7 30.15 1021 10 16 0.00 0.00
6:56 pm 18:56 Clear 46 7.7 24 -4.7 41 41 SE 8 13 30.16 1021 10 16 0.00 0.00
7:56 pm 19:56 undefined 42 5.3 24 -4.6 49 49 SE 5 7 30.16 1021 10 16 0.00 0.00
8:56 pm 20:56 undefined 40 4.3 25 -3.9 56 56 SSE 5 7 30.16 1021 10 16 0.00 0.00
9:56 pm 21:56 undefined 40 4.6 25 -3.9 54 54 SE 5 7 30.16 1021 10 16 0.00 0.00
10:56 pm 22:56 undefined 38 3.4 26 -3.6 61 61 ESE 3 6 30.16 1021 10 16 0.00 0.00
11:56 pm 23:56 Clear 38 3.3 26 -3.5 61 61 Calm 30.14 1021 10 16 0.00 0.00

Powered by AerisWeather